Time,TemperatureF,DewpointF,PressureIn,WindDirection,WindDirectionDegrees,WindSpeedMPH,WindSpeedGustMPH,Humidity,HourlyPrecipIn,Conditions,Clouds,dailyrainin,SoftwareType,DateUTC
2013-07-18 00:14:00,74.3,73.7,29.88,WNW,292,0.0,-999.0,98,-99.99,,,0.00,Acu-Link.com,2013-07-18 05:14:00,
2013-07-18 00:30:00,73.9,73.3,29.88,NNE,22,0.0,-999.0,98,-99.99,,,0.00,Acu-Link.com,2013-07-18 05:30:00,
2013-07-18 00:45:00,73.9,73.3,29.87,West,270,0.0,-999.0,98,-99.99,,,0.00,Acu-Link.com,2013-07-18 05:45:00,
2013-07-18 01:00:00,73.9,73.3,29.86,SSW,202,0.0,-999.0,98,-99.99,,,0.00,Acu-Link.com,2013-07-18 06:00:00,
2013-07-18 01:15:00,73.6,73.0,29.86,West,270,0.0,-999.0,98,-99.99,,,0.00,Acu-Link.com,2013-07-18 06:15:00,
2013-07-18 01:30:00,73.2,72.6,29.85,NNW,337,0.0,-999.0,98,-99.99,,,0.00,Acu-Link.com,2013-07-18 06:30:00,
2013-07-18 01:45:00,73.2,72.6,29.86,NE,45,0.0,-999.0,98,-99.99,,,0.00,Acu-Link.com,2013-07-18 06:45:00,
2013-07-18 02:00:00,73.0,72.4,29.85,NE,45,0.0,-999.0,98,-99.99,,,0.00,Acu-Link.com,2013-07-18 07:00:00,
2013-07-18 02:15:00,72.9,72.3,29.85,SSE,157,0.0,-999.0,98,-99.99,,,0.00,Acu-Link.com,2013-07-18 07:15:00,
2013-07-18 02:30:00,73.0,72.4,29.85,NNW,337,0.0,-999.0,98,-99.99,,,0.00,Acu-Link.com,2013-07-18 07:30:00,
2013-07-18 02:46:00,72.7,72.1,29.84,NNE,22,0.0,-999.0,98,-99.99,,,0.00,Acu-Link.com,2013-07-18 07:46:00,
2013-07-18 03:01:00,72.5,71.9,29.84,North,0,0.0,-999.0,98,-99.99,,,0.00,Acu-Link.com,2013-07-18 08:01:00,
2013-07-18 03:16:00,72.5,71.9,29.84,ENE,67,0.0,-999.0,98,-99.99,,,0.00,Acu-Link.com,2013-07-18 08:16:00,
2013-07-18 03:31:00,72.3,71.7,29.83,NE,45,0.0,-999.0,98,-99.99,,,0.00,Acu-Link.com,2013-07-18 08:31:00,
2013-07-18 03:46:00,72.1,71.5,29.84,NNE,22,0.0,-999.0,98,-99.99,,,0.00,Acu-Link.com,2013-07-18 08:46:00,
2013-07-18 04:01:00,72.3,71.7,29.83,NW,315,0.0,-999.0,98,-99.99,,,0.00,Acu-Link.com,2013-07-18 09:01:00,
2013-07-18 04:16:00,72.1,71.5,29.84,NW,315,0.0,-999.0,98,-99.99,,,0.00,Acu-Link.com,2013-07-18 09:16:00,
2013-07-18 04:31:00,72.0,71.4,29.83,NNW,337,0.0,-999.0,98,-99.99,,,0.00,Acu-Link.com,2013-07-18 09:31:00,
2013-07-18 04:46:00,71.8,71.2,29.83,NW,315,0.0,-999.0,98,-99.99,,,0.00,Acu-Link.com,2013-07-18 09:46:00,
2013-07-18 05:02:00,71.6,71.0,29.83,NW,315,0.0,-999.0,98,-99.99,,,0.00,Acu-Link.com,2013-07-18 10:02:00,
2013-07-18 05:17:00,71.6,71.0,29.84,NE,45,0.0,-999.0,98,-99.99,,,0.00,Acu-Link.com,2013-07-18 10:17:00,
2013-07-18 05:32:00,71.6,71.0,29.84,South,180,0.0,-999.0,98,-99.99,,,0.00,Acu-Link.com,2013-07-18 10:32:00,
2013-07-18 05:47:00,71.8,71.2,29.84,SW,225,0.0,-999.0,98,-99.99,,,0.00,Acu-Link.com,2013-07-18 10:47:00,
2013-07-18 06:02:00,71.8,71.2,29.84,SSE,157,0.0,-999.0,98,-99.99,,,0.00,Acu-Link.com,2013-07-18 11:02:00,
2013-07-18 06:17:00,71.8,71.2,29.84,ENE,67,0.0,-999.0,98,-99.99,,,0.00,Acu-Link.com,2013-07-18 11:17:00,
2013-07-18 06:32:00,72.1,71.5,29.85,SSE,157,0.0,-999.0,98,-99.99,,,0.00,Acu-Link.com,2013-07-18 11:32:00,
2013-07-18 06:47:00,73.2,72.6,29.87,South,180,0.0,-999.0,98,-99.99,,,0.00,Acu-Link.com,2013-07-18 11:47:00,
2013-07-18 07:02:00,74.5,73.9,29.88,ESE,112,1.7,-999.0,98,-99.99,,,0.01,Acu-Link.com,2013-07-18 12:02:00,
2013-07-18 07:18:00,74.1,73.5,29.89,East,90,1.7,-999.0,98,-99.99,,,0.05,Acu-Link.com,2013-07-18 12:18:00,
2013-07-18 07:33:00,73.9,73.3,29.88,NE,45,1.1,-999.0,98,-99.99,,,0.05,Acu-Link.com,2013-07-18 12:33:00,
2013-07-18 07:48:00,73.8,73.2,29.88,East,90,1.7,-999.0,98,-99.99,,,0.05,Acu-Link.com,2013-07-18 12:48:00,
2013-07-18 08:03:00,73.8,73.2,29.88,NNE,22,1.1,-999.0,98,-99.99,,,0.05,Acu-Link.com,2013-07-18 13:03:00,
2013-07-18 08:18:00,73.4,72.8,29.89,NE,45,0.0,-999.0,98,-99.99,,,0.05,Acu-Link.com,2013-07-18 13:18:00,
2013-07-18 08:33:00,73.0,72.4,29.89,SE,135,2.2,-999.0,98,-99.99,,,0.06,Acu-Link.com,2013-07-18 13:33:00,
2013-07-18 08:48:00,72.5,71.9,29.89,West,270,1.7,-999.0,98,-99.99,,,0.07,Acu-Link.com,2013-07-18 13:48:00,
2013-07-18 09:04:00,72.7,72.1,29.88,SSE,157,2.2,-999.0,98,-99.99,,,0.07,Acu-Link.com,2013-07-18 14:04:00,
2013-07-18 09:19:00,73.0,72.4,29.87,South,180,4.2,-999.0,98,-99.99,,,0.08,Acu-Link.com,2013-07-18 14:19:00,
2013-07-18 09:34:00,73.0,72.4,29.86,South,180,8.9,-999.0,98,-99.99,,,0.08,Acu-Link.com,2013-07-18 14:34:00,
2013-07-18 09:49:00,73.8,73.2,29.86,SSE,157,1.7,-999.0,98,-99.99,,,0.09,Acu-Link.com,2013-07-18 14:49:00,
2013-07-18 10:04:00,75.2,74.6,29.87,West,270,1.1,-999.0,98,-99.99,,,0.09,Acu-Link.com,2013-07-18 15:04:00,
2013-07-18 10:19:00,75.6,75.0,29.88,SW,225,2.7,-999.0,98,-99.99,,,0.09,Acu-Link.com,2013-07-18 15:19:00,
2013-07-18 10:34:00,75.9,75.3,29.88,NNW,337,2.2,-999.0,98,-99.99,,,0.09,Acu-Link.com,2013-07-18 15:34:00,
2013-07-18 10:49:00,76.3,75.7,29.89,East,90,1.1,-999.0,98,-99.99,,,0.09,Acu-Link.com,2013-07-18 15:49:00,
2013-07-18 11:04:00,76.5,75.9,29.88,South,180,2.2,-999.0,98,-99.99,,,0.09,Acu-Link.com,2013-07-18 16:04:00,
2013-07-18 11:20:00,77.0,76.4,29.87,SSW,202,2.7,-999.0,98,-99.99,,,0.09,Acu-Link.com,2013-07-18 16:20:00,
2013-07-18 11:35:00,78.3,76.4,29.87,West,270,1.7,-999.0,94,-99.99,,,0.09,Acu-Link.com,2013-07-18 16:35:00,
2013-07-18 11:50:00,79.0,76.8,29.86,SSW,202,1.7,-999.0,93,-99.99,,,0.09,Acu-Link.com,2013-07-18 16:50:00,
2013-07-18 12:05:00,79.9,77.4,29.85,NNE,22,3.2,-999.0,92,-99.99,,,0.09,Acu-Link.com,2013-07-18 17:05:00,
2013-07-18 12:20:00,81.3,78.4,29.84,SSE,157,2.2,-999.0,91,-99.99,,,0.09,Acu-Link.com,2013-07-18 17:20:00,
2013-07-18 12:35:00,82.4,78.1,29.83,ESE,112,1.1,-999.0,87,-99.99,,,0.09,Acu-Link.com,2013-07-18 17:35:00,
2013-07-18 12:51:00,85.1,79.3,29.83,NNE,22,1.1,-999.0,83,-99.99,,,0.09,Acu-Link.com,2013-07-18 17:51:00,
2013-07-18 13:06:00,86.9,80.0,29.82,South,180,1.7,-999.0,80,-99.99,,,0.09,Acu-Link.com,2013-07-18 18:06:00,
2013-07-18 13:21:00,89.8,80.8,29.81,NW,315,1.7,-999.0,75,-99.99,,,0.09,Acu-Link.com,2013-07-18 18:21:00,
2013-07-18 13:36:00,89.2,80.2,29.81,SSW,202,1.1,-999.0,75,-99.99,,,0.09,Acu-Link.com,2013-07-18 18:36:00,
2013-07-18 13:51:00,90.1,79.4,29.80,South,180,1.7,-999.0,71,-99.99,,,0.09,Acu-Link.com,2013-07-18 18:51:00,
2013-07-18 14:06:00,92.1,80.4,29.80,SSE,157,2.2,-999.0,69,-99.99,,,0.09,Acu-Link.com,2013-07-18 19:06:00,
2013-07-18 14:21:00,92.8,80.6,29.78,South,180,3.2,-999.0,68,-99.99,,,0.09,Acu-Link.com,2013-07-18 19:21:00,
2013-07-18 14:36:00,89.8,81.2,29.78,SE,135,1.7,-999.0,76,-99.99,,,0.09,Acu-Link.com,2013-07-18 19:36:00,
2013-07-18 14:51:00,92.3,81.1,29.76,SSE,157,1.7,-999.0,70,-99.99,,,0.09,Acu-Link.com,2013-07-18 19:51:00,
2013-07-18 15:07:00,91.0,80.3,29.76,NNW,337,1.7,-999.0,71,-99.99,,,0.09,Acu-Link.com,2013-07-18 20:07:00,
2013-07-18 15:22:00,90.0,80.2,29.75,SSE,157,2.2,-999.0,73,-99.99,,,0.09,Acu-Link.com,2013-07-18 20:22:00,
2013-07-18 15:37:00,86.2,80.4,29.75,SE,135,4.2,-999.0,83,-99.99,,,0.09,Acu-Link.com,2013-07-18 20:37:00,
2013-07-18 15:52:00,84.0,80.4,29.76,NW,315,1.7,-999.0,89,-99.99,,,0.09,Acu-Link.com,2013-07-18 20:52:00,
2013-07-18 16:07:00,86.2,80.0,29.76,SSW,202,3.2,-999.0,82,-99.99,,,0.09,Acu-Link.com,2013-07-18 21:07:00,
2013-07-18 16:22:00,85.5,79.7,29.75,West,270,4.7,-999.0,83,-99.99,,,0.09,Acu-Link.com,2013-07-18 21:22:00,
2013-07-18 16:37:00,83.1,78.1,29.77,WNW,292,5.3,-999.0,85,-99.99,,,0.09,Acu-Link.com,2013-07-18 21:37:00,
2013-07-18 16:52:00,81.3,77.4,29.78,WNW,292,2.7,-999.0,88,-99.99,,,0.09,Acu-Link.com,2013-07-18 21:52:00,
2013-07-18 17:07:00,79.3,76.8,29.78,NNW,337,4.7,-999.0,92,-99.99,,,0.09,Acu-Link.com,2013-07-18 22:07:00,
2013-07-18 17:23:00,79.0,78.4,29.77,SSW,202,1.1,-999.0,98,-99.99,,,0.09,Acu-Link.com,2013-07-18 22:23:00,
2013-07-18 17:38:00,77.7,77.1,29.78,NNE,22,2.7,-999.0,98,-99.99,,,0.09,Acu-Link.com,2013-07-18 22:38:00,
2013-07-18 17:53:00,78.4,77.8,29.77,NNW,337,3.2,-999.0,98,-99.99,,,0.09,Acu-Link.com,2013-07-18 22:53:00,
2013-07-18 18:08:00,79.5,78.3,29.77,NW,315,2.7,-999.0,96,-99.99,,,0.09,Acu-Link.com,2013-07-18 23:08:00,
2013-07-18 18:23:00,78.8,78.2,29.76,WNW,292,3.2,-999.0,98,-99.99,,,0.09,Acu-Link.com,2013-07-18 23:23:00,
2013-07-18 18:38:00,80.8,77.2,29.76,WNW,292,6.3,-999.0,89,-99.99,,,0.09,Acu-Link.com,2013-07-18 23:38:00,
2013-07-18 18:53:00,80.6,77.0,29.76,NNE,22,4.2,-999.0,89,-99.99,,,0.09,Acu-Link.com,2013-07-18 23:53:00,
2013-07-18 19:08:00,79.5,76.6,29.75,NE,45,3.2,-999.0,91,-99.99,,,0.09,Acu-Link.com,2013-07-19 00:08:00,
2013-07-18 19:23:00,79.5,76.6,29.76,NNE,22,3.2,-999.0,91,-99.99,,,0.09,Acu-Link.com,2013-07-19 00:23:00,
2013-07-18 19:39:00,77.4,76.8,29.76,West,270,2.2,-999.0,98,-99.99,,,0.09,Acu-Link.com,2013-07-19 00:39:00,
2013-07-18 19:54:00,76.1,75.5,29.76,NNW,337,2.2,-999.0,98,-99.99,,,0.09,Acu-Link.com,2013-07-19 00:54:00,
2013-07-18 20:09:00,75.7,75.1,29.77,SW,225,0.0,-999.0,98,-99.99,,,0.09,Acu-Link.com,2013-07-19 01:09:00,
2013-07-18 20:24:00,75.2,74.6,29.78,NE,45,1.7,-999.0,98,-99.99,,,0.09,Acu-Link.com,2013-07-19 01:24:00,
2013-07-18 20:39:00,74.5,73.9,29.77,NNW,337,1.1,-999.0,98,-99.99,,,0.09,Acu-Link.com,2013-07-19 01:39:00,
2013-07-18 20:54:00,74.3,73.7,29.78,West,270,0.0,-999.0,98,-99.99,,,0.09,Acu-Link.com,2013-07-19 01:54:00,
2013-07-18 21:09:00,73.8,73.2,29.78,SSE,157,0.0,-999.0,98,-99.99,,,0.09,Acu-Link.com,2013-07-19 02:09:00,
2013-07-18 21:25:00,73.4,72.8,29.79,SSW,202,0.0,-999.0,98,-99.99,,,0.09,Acu-Link.com,2013-07-19 02:25:00,
2013-07-18 21:40:00,73.0,72.4,29.79,ESE,112,0.0,-999.0,98,-99.99,,,0.09,Acu-Link.com,2013-07-19 02:40:00,
2013-07-18 21:55:00,72.7,72.1,29.79,WNW,292,0.0,-999.0,98,-99.99,,,0.09,Acu-Link.com,2013-07-19 02:55:00,
2013-07-18 22:10:00,72.1,71.5,29.79,SSE,157,0.0,-999.0,98,-99.99,,,0.09,Acu-Link.com,2013-07-19 03:10:00,
2013-07-18 22:25:00,72.1,71.5,29.80,WNW,292,0.0,-999.0,98,-99.99,,,0.09,Acu-Link.com,2013-07-19 03:25:00,
2013-07-18 22:40:00,71.8,71.2,29.80,East,90,0.0,-999.0,98,-99.99,,,0.09,Acu-Link.com,2013-07-19 03:40:00,
2013-07-18 22:55:00,71.6,71.0,29.80,North,0,0.0,-999.0,98,-99.99,,,0.09,Acu-Link.com,2013-07-19 03:55:00,
2013-07-18 23:10:00,71.2,70.6,29.79,South,180,0.0,-999.0,98,-99.99,,,0.09,Acu-Link.com,2013-07-19 04:10:00,
2013-07-18 23:25:00,71.1,70.5,29.78,NNW,337,0.0,-999.0,98,-99.99,,,0.09,Acu-Link.com,2013-07-19 04:25:00,
2013-07-18 23:41:00,71.1,70.5,29.78,SW,225,0.0,-999.0,98,-99.99,,,0.09,Acu-Link.com,2013-07-19 04:41:00,
2013-07-18 23:56:00,70.9,70.3,29.77,East,90,0.0,-999.0,98,-99.99,,,0.09,Acu-Link.com,2013-07-19 04:56:00,